Stations météo

Publicité
Le Touquet, France (7003): Température de l'air & dewpoint: 15.01.2018 15:00:00 - 21.01.2018 15:00:00 (CET)Le Touquet, France (7003): Température de l'air 5cm: 15.01.2018 15:00:00 - 21.01.2018 15:00:00 (CET)Le Touquet, France (7003): Vitesse du vent & gusts: 15.01.2018 15:00:00 - 21.01.2018 15:00:00 (CET)Le Touquet, France (7003): Direction du vent: 15.01.2018 15:00:00 - 21.01.2018 15:00:00 (CET)Le Touquet, France (7003): reduced air pressure: 15.01.2018 15:00:00 - 21.01.2018 15:00:00 (CET)Le Touquet, France (7003): visibility: 15.01.2018 15:00:00 - 21.01.2018 15:00:00 (CET)Le Touquet, France (7003): Ensoleillement: 15.01.2018 15:00:00 - 21.01.2018 15:00:00 (CET)Le Touquet, France (7003): Quantités de précipitations: 15.01.2018 15:00:00 - 21.01.2018 15:00:00 (CET)
Date & Time tt [°C] td [°C] tt 5cm [°C] ff [km/h] ff [knt] fx [km/h] fx [knt] dd ppp [hPa] vv [km] sd [min] rr [mm]
21.01.2018 15:00:00 2,7 2,0 2,5 24 13 33 18 ESE 1014,5 8 0 1,2
21.01.2018 14:00:00 3,4 2,5 3,3 18 10 27 15 SE 1015,1 8 0 0,6
21.01.2018 13:00:00 3,6 2,9 3,6 13 7 22 12 SSE 1016,2 5 0 1,0
21.01.2018 12:00:00 3,7 3,1 3,7 9 5 11 6 SE 1017,3 3,8 0 0,2
21.01.2018 11:00:00 3,2 2,8 2,5 9 5 12 6 SE 1017,6 8 0 0,0
21.01.2018 10:00:00 2,6 2,3 1,4 6 3 9 5 SE 1017,4 6 0 0,0
21.01.2018 09:00:00 1,9 1,5 0,4 4 2 9 5 SSE 1017,0 6 0 0,0
21.01.2018 08:00:00 1,6 1,2 -0,1 8 5 10 5 SE 1016,5 4,9 0 0,0
21.01.2018 07:00:00 1,8 1,2 -0,2 0 0 6 3 N 1015,7 7 0 0,0
21.01.2018 06:00:00 1,9 1,0 -0,3 3 2 11 6 S 1015,2 12 0 0,0
21.01.2018 05:00:00 2,5 1,6 -0,8 0 0 15 8 N 1014,6 10 0 0,0
21.01.2018 04:00:00 2,2 1,2 -0,8 6 3 17 9 N 1014,0 18 0 0,0
21.01.2018 03:00:00 3,8 2,6 2,5 14 8 21 12 N 1013,4 20 0 0,0
21.01.2018 02:00:00 4,3 3,3 3,0 14 8 29 16 N 1012,1 32 0 0,0
21.01.2018 01:00:00 4,3 3,6 3,2 16 9 28 15 NNW 1010,3 20 0 0,2
21.01.2018 00:00:00 5,4 4,8 4,7 13 7 18 10 N 1008,6 7 0 0,0
20.01.2018 23:00:00 5,6 4,9 5,0 10 5 17 9 N 1006,8 11 0 0,0
20.01.2018 22:00:00 5,7 5,3 5,3 12 7 21 11 N 1005,1 11 0 0,0
20.01.2018 21:00:00 6,0 5,7 5,6 9 5 27 14 N 1003,0 52 0 0,0
20.01.2018 20:00:00 6,6 6,5 6,0 3 2 7 4 NNW 1001,2 3,4 0 0,0
20.01.2018 19:00:00 6,2 5,9 5,9 3 1 6 4 SE 999,9 1,2 0 0,2
20.01.2018 18:00:00 6,3 6,0 5,9 5 3 6 3 SE 999,3 1,2 0 0,2
20.01.2018 17:00:00 6,4 5,8 6,1 0 0 5 3 N 999,0 2,8 0 0,2
20.01.2018 16:00:00 6,5 5,9 7,1 2 1 7 4 W 998,6 17 0 0,0
20.01.2018 15:00:00 6,2 5,8 7,3 0 0 10 6 N 998,2 31 0 0,0
20.01.2018 14:00:00 5,9 5,6 6,3 7 4 13 7 ESE 997,8 25 0 0,0
20.01.2018 13:00:00 5,6 5,3 5,4 12 6 17 9 ESE 998,7 4,6 0 0,2
20.01.2018 12:00:00 5,1 4,8 5,3 11 6 19 11 ESE 1000,1 2,5 0 0,2
20.01.2018 11:00:00 5,2 4,8 4,7 11 6 17 9 SE 1000,6 3,5 0 0,4
20.01.2018 10:00:00 4,9 4,3 4,3 12 7 21 11 SE 1002,1 11 0 0,4
20.01.2018 09:00:00 4,8 4,1 4,3 11 6 17 9 SSE 1003,3 18 0 0,4
20.01.2018 08:00:00 5,2 4,0 4,3 8 4 25 14 SSE 1004,7 14 0 0,2
20.01.2018 07:00:00 5,6 3,4 4,5 16 9 40 22 SSW 1005,8 24 0 0,0
20.01.2018 06:00:00 6,2 3,9 5,0 19 10 37 20 SW 1006,4 19 0 1,6
20.01.2018 05:00:00 6,7 4,0 5,4 15 8 25 14 SSW 1007,5 17 0 0,0
20.01.2018 04:00:00 7,9 2,6 4,9 14 8 32 17 W 1008,7 47 0 0,0
20.01.2018 03:00:00 7,6 1,4 4,6 15 8 28 15 W 1009,8 44 0 0,0
20.01.2018 02:00:00 7,0 0,9 3,9 13 7 35 19 WNW 1010,7 39 0 0,0
20.01.2018 01:00:00 7,0 1,1 3,9 18 10 36 20 WNW 1011,1 41 0 0,0
20.01.2018 00:00:00 7,0 0,9 4,0 19 10 43 23 WNW 1011,6 44 0 0,0
19.01.2018 23:00:00 7,2 0,8 4,4 19 10 43 23 WNW 1011,5 45 0 0,0
19.01.2018 22:00:00 7,2 0,2 4,1 21 11 37 20 WNW 1011,6 51 0 0,0
19.01.2018 21:00:00 7,3 0,5 4,2 22 12 39 21 WNW 1011,2 51 0 0,0
19.01.2018 20:00:00 7,2 0,6 4,0 21 11 42 23 WNW 1011,0 54 0 0,0
19.01.2018 19:00:00 7,6 0,6 4,4 21 11 41 22 W 1010,8 50 0 0,0
19.01.2018 18:00:00 7,2 0,4 4,2 19 11 42 23 WNW 1010,9 53 0 0,0
19.01.2018 17:00:00 7,3 1,1 4,8 16 9 36 20 WNW 1010,9 49 0 0,0
19.01.2018 16:00:00 7,4 0,6 5,4 17 9 39 21 W 1010,8 39 17 0,0
19.01.2018 15:00:00 7,6 -0,1 7,1 20 11 42 23 WNW 1010,9 51 52 0,0
19.01.2018 14:00:00 7,8 0,3 8,6 20 11 40 22 W 1011,2 41 49 0,0
19.01.2018 13:00:00 7,5 0,7 6,1 20 11 41 22 WNW 1011,7 39 35 0,0
19.01.2018 12:00:00 7,0 0,4 6,3 16 9 30 16 WNW 1011,5 44 11 0,0
19.01.2018 11:00:00 6,7 1,2 4,7 14 8 31 17 WNW 1011,3 38 47 0,0
19.01.2018 10:00:00 6,3 0,0 2,6 14 7 31 17 WNW 1010,9 33 29 0,0
19.01.2018 09:00:00 6,0 0,1 1,9 16 9 32 18 WNW 1010,4 60 0 0,0
19.01.2018 08:00:00 5,8 0,5 2,0 15 8 35 19 WNW 1010,0 56 0 0,0
19.01.2018 07:00:00 5,7 0,0 2,2 18 10 35 19 WNW 1009,6 60 0 0,0
19.01.2018 06:00:00 5,8 0,5 2,3 16 9 34 18 WNW 1009,6 57 0 0,0
19.01.2018 05:00:00 5,9 0,6 3,1 21 12 33 18 WNW 1009,4 49 0 0,0
19.01.2018 04:00:00 6,1 1,0 3,4 21 11 37 20 WNW 1009,3 49 0 0,0
19.01.2018 03:00:00 6,2 0,9 3,1 20 11 38 20 WNW 1009,0 50 0 0,0
19.01.2018 02:00:00 6,3 0,4 3,2 20 11 42 23 WNW 1008,6 52 0 0,0
19.01.2018 01:00:00 6,3 0,6 3,9 22 12 46 25 WNW 1008,2 56 0 0,0
19.01.2018 00:00:00 6,6 0,9 4,3 27 15 45 24 WNW 1007,4 53 0 0,0
18.01.2018 23:00:00 7,0 1,7 4,4 28 15 48 26 WNW 1006,6 46 0 0,0
18.01.2018 22:00:00 7,3 2,6 4,6 23 12 53 29 WNW 1005,9 46 0 0,0
18.01.2018 21:00:00 7,9 3,0 5,3 28 15 48 26 WNW 1005,2 47 0 0,0
18.01.2018 20:00:00 8,1 2,7 5,5 26 14 51 28 WNW 1004,5 49 0 0,0
18.01.2018 19:00:00 7,8 3,8 5,4 21 11 45 24 W 1004,0 49 0 0,0
18.01.2018 18:00:00 8,9 5,1 7,2 21 12 41 22 W 1003,6 17 0 0,0
18.01.2018 17:00:00 9,0 4,8 7,4 21 12 44 24 W 1003,7 18 16 0,0
18.01.2018 16:00:00 9,0 4,8 7,4 18 10 42 23 W 1003,8 20 24 0,0
18.01.2018 15:00:00 9,6 4,6 9,1 17 9 44 24 W 1003,6 20 47 0,0
18.01.2018 14:00:00 9,3 3,5 9,5 21 11 52 28 W 1004,0 11 50 0,0
18.01.2018 13:00:00 9,4 2,9 8,4 29 15 52 28 W 1004,2 10 55 0,0
18.01.2018 12:00:00 9,1 3,3 8,7 27 14 51 28 WNW 1004,3 10 41 0,0
18.01.2018 11:00:00 9,0 3,2 7,0 29 15 58 32 WNW 1003,7 14 19 0,0
18.01.2018 10:00:00 9,1 3,1 6,5 32 18 90 48 WNW 1002,3 17 11 0,0
18.01.2018 09:00:00 9,7 3,0 6,8 40 22 89 48 W 1000,4 16 0 0,0
18.01.2018 08:00:00 10,6 6,0 8,4 36 19 89 48 W 998,3 8 0 0,0
18.01.2018 07:00:00 11,1 8,8 9,7 39 21 83 45 W 996,7 7 0 0,0
18.01.2018 06:00:00 10,5 9,6 9,0 37 20 69 37 WSW 996,6 7 0 0,0
18.01.2018 05:00:00 9,5 9,0 8,2 36 19 74 40 WSW 997,3 6 0 0,4
18.01.2018 04:00:00 8,7 8,1 7,2 42 23 77 42 SW 998,5 2,7 0 0,2
18.01.2018 03:00:00 7,8 7,0 6,4 32 18 59 32 SW 1000,1 5 0 1,7
18.01.2018 02:00:00 6,8 6,2 6,2 29 16 51 27 SSW 1002,6 5 0 2,4
18.01.2018 01:00:00 6,9 6,3 6,2 25 13 44 24 SW 1005,4 3,9 0 2,2
18.01.2018 00:00:00 7,4 6,0 5,6 28 15 46 25 SW 1007,4 4,1 0 1,2
17.01.2018 23:00:00 7,9 3,4 6,1 22 12 43 23 W 1009,2 16 0 0,0
17.01.2018 22:00:00 8,5 2,9 5,8 19 10 47 25 W 1010,0 19 0 0,0
17.01.2018 21:00:00 8,0 1,2 6,0 24 13 54 29 W 1010,9 20 0 0,0
17.01.2018 20:00:00 8,1 2,1 5,5 21 11 51 27 W 1010,8 18 0 0,0
17.01.2018 19:00:00 8,0 1,4 5,5 28 15 53 29 W 1010,9 19 0 0,0
17.01.2018 18:00:00 7,9 0,4 5,3 28 15 61 33 WNW 1010,9 19 0 0,0
17.01.2018 17:00:00 7,8 0,5 5,5 31 17 60 32 W 1010,8 20 6 0,0
17.01.2018 16:00:00 8,0 0,9 6,5 31 17 65 35 W 1010,2 14 30 0,0
17.01.2018 15:00:00 7,6 0,6 6,6 29 16 61 33 WNW 1010,0 14 5 0,0
17.01.2018 14:00:00 7,7 0,4 7,6 34 18 62 34 WNW 1009,8 12 44 0,0
17.01.2018 13:00:00 7,4 -0,3 6,0 34 18 72 39 WNW 1009,3 14 47 0,0
17.01.2018 12:00:00 7,2 -0,3 6,1 33 18 61 33 WNW 1008,9 14 60 0,0
17.01.2018 11:00:00 6,7 0,1 4,7 34 19 68 37 WNW 1007,7 15 51 0,0
17.01.2018 10:00:00 6,2 -0,8 3,6 35 19 67 36 WNW 1006,4 17 0 0,0
17.01.2018 09:00:00 5,9 -0,6 3,3 35 19 74 40 WNW 1005,2 16 0 0,0
17.01.2018 08:00:00 5,6 -0,9 3,2 31 17 71 38 WNW 1003,6 19 0 0,0
17.01.2018 07:00:00 5,5 -1,9 2,9 40 21 79 42 WNW 1002,6 19 0 0,0
17.01.2018 06:00:00 5,2 -1,7 3,1 38 21 77 42 WNW 1001,7 37 0 0,0
17.01.2018 05:00:00 5,8 -1,1 4,0 39 21 86 47 WNW 1000,2 20 0 0,0
17.01.2018 04:00:00 5,9 -0,8 3,6 40 22 74 40 WNW 999,6 19 0 0,0
17.01.2018 03:00:00 5,7 -1,5 3,5 39 21 74 40 WNW 998,7 20 0 0,0
17.01.2018 02:00:00 6,0 -1,2 4,0 41 22 67 36 WNW 997,8 20 0 0,0
17.01.2018 01:00:00 6,8 -0,2 4,1 31 17 64 35 WNW 997,2 40 0 0,0
17.01.2018 00:00:00 6,6 -0,6 3,9 28 15 69 37 WNW 997,1 47 0 0,0
16.01.2018 23:00:00 6,2 0,9 3,7 30 16 54 29 WNW 996,5 54 0 0,0
16.01.2018 22:00:00 6,2 1,9 4,2 24 13 67 36 W 996,5 50 0 0,0
16.01.2018 21:00:00 7,0 2,7 5,0 29 15 56 31 W 996,4 10 0 0,2
16.01.2018 20:00:00 7,4 2,3 5,3 22 12 46 25 W 996,7 52 0 0,0
16.01.2018 19:00:00 6,7 2,0 5,1 19 10 56 30 WSW 997,2 50 0 0,0
16.01.2018 18:00:00 7,6 0,8 5,4 24 13 53 29 W 997,9 39 0 0,0
16.01.2018 17:00:00 7,5 1,3 5,6 26 14 58 31 W 998,0 20 1 0,0
16.01.2018 16:00:00 8,0 0,5 5,4 29 15 61 33 W 998,2 20 15 0,0
16.01.2018 15:00:00 8,0 2,0 6,4 27 14 59 32 W 998,2 20 4 0,0
16.01.2018 14:00:00 8,3 1,2 7,0 30 16 58 32 W 998,4 20 0 0,0
16.01.2018 13:00:00 8,0 2,2 6,5 30 16 61 33 W 998,9 20 24 0,0
16.01.2018 12:00:00 7,9 3,0 7,1 27 15 59 32 W 999,1 28 60 0,0
16.01.2018 11:00:00 7,9 1,5 6,4 31 17 67 36 WNW 998,5 19 38 0,0
16.01.2018 10:00:00 8,5 0,5 5,4 34 19 66 35 WNW 997,9 20 18 0,0
16.01.2018 09:00:00 8,2 3,0 4,8 29 16 61 33 W 997,2 19 0 0,0
16.01.2018 08:00:00 8,0 3,5 5,1 30 16 58 32 WNW 996,0 18 0 0,0
16.01.2018 07:00:00 8,5 3,7 5,9 27 14 67 36 W 995,5 20 0 0,0
16.01.2018 06:00:00 8,9 5,1 6,6 23 13 51 28 W 995,6 14 0 0,0
16.01.2018 05:00:00 8,5 5,9 5,3 24 13 55 30 W 995,4 13 0 1,6
16.01.2018 04:00:00 9,2 5,7 6,7 21 12 51 27 W 995,8 13 0 0,0
16.01.2018 03:00:00 9,0 5,6 6,2 23 13 44 24 W 995,9 15 0 0,0
16.01.2018 02:00:00 8,5 5,2 5,1 20 11 45 24 W 996,5 18 0 0,2
16.01.2018 01:00:00 7,9 4,7 6,0 18 10 48 26 W 997,5 44 0 0,2
16.01.2018 00:00:00 9,3 5,8 6,7 18 10 62 34 W 997,9 14 0 0,0
15.01.2018 23:00:00 9,0 5,2 6,2 22 12 50 27 W 997,7 15 0 0,0
15.01.2018 22:00:00 8,8 4,8 6,0 23 12 49 27 W 997,5 19 0 0,0
15.01.2018 21:00:00 9,0 5,0 6,4 27 15 60 33 W 997,2 18 0 0,0
15.01.2018 20:00:00 9,5 6,2 7,3 29 15 59 32 W 996,6 16 0 0,0
15.01.2018 19:00:00 9,7 8,6 8,1 23 13 45 24 W 995,4 9 0 0,0
15.01.2018 18:00:00 9,9 8,7 8,8 25 13 51 27 W 994,7 9 0 0,4
15.01.2018 17:00:00 9,8 9,3 8,4 24 13 47 26 WSW 994,5 3,4 0 0,2
15.01.2018 16:00:00 8,7 8,4 7,9 27 15 61 33 SW 995,1 8 0 0,6
15.01.2018 15:00:00 8,1 7,7 7,3 31 17 68 37 SSW 995,7 6 0 1,2

tt = Température de l'air
td = dewpoint
tt 5cm = Température de l'air 5cm
ff = Vitesse du vent
fx = gusts
dd = Direction du vent
ppp = reduced air pressure
vv = visibility
sd = Ensoleillement
rr = Quantités de précipitations

stations d'obs. à proximité